Flag for Canada Weather past 2 weeks in Resolute Bay, Nunavut, Canada

Now
39 °F

More clouds than sun.


Feels Like: 30 °F
Forecast: 39 / 46 °F
Wind: 18 mph from Southeast

Location: Resolute

Current Time: Jul 5, 2015 at 8:44:00 AM

Latest Report: Jul 5, 2015 at 8:00 AM


Visibility: 15 mi

Pressure: 29.89 "Hg

Humidity: 81%

Dew point: 34 °F

Location of Resolute BayLocation

Historic Weather in Resolute Bay — Graph

°F

Resolute Bay temperature yesterday

Maximum temperature yesterday: 46 °F (at 9:00 AM)
Minimum temperature yesterday: 37 °F (at 11:00 PM)
Average temperature yesterday: 43 °F

Past Weeks' High & Low Weather Summary

 TemperatureHumidityPressure
High54 °F (Jun 30, 12:00 PM)100% (Jun 20, 8:00 AM)30.14 "Hg (Jun 20, 8:00 AM)
Low34 °F (Jun 20, 8:00 AM)38% (Jun 29, 1:00 PM)29.59 "Hg (Jun 24, 5:00 AM)
Average42 °F75%29.90 "Hg
* Reported Jun 20 7:00 AM — Jul 5 7:00 AM, Resolute Bay, Weather by CustomWeather, © 2015

Note: Actual official high and low records may vary slightly from our data, if they occured in-between our weather recording intervals... More about our weather records

Advertising

Resolute Bay weather history for previous 24 hours

 ConditionsComfort  
Time TempWeatherWind HumidityBarometerVisibility
7:00 AM
Sun, Jul 5
37 °FMore clouds than sun.21 mph93%29.89 "Hg15 mi
6:00 AM37 °FScattered clouds.21 mph93%29.88 "Hg15 mi
5:00 AM37 °FLight rain. Low clouds.18 mph93%29.89 "Hg15 mi
4:00 AM37 °FPartly sunny.20 mph87%29.89 "Hg15 mi
3:00 AM37 °FBroken clouds.21 mph93%29.89 "Hg15 mi
2:00 AM37 °FFog.22 mph93%29.89 "Hg15 mi
1:00 AM37 °FPartly sunny.22 mph87%29.90 "Hg15 mi
12:00 AM37 °FFog.22 mph87%29.89 "Hg15 mi
11:00 PM
Sat, Jul 4
37 °FPartly sunny.25 mph87%29.90 "Hg15 mi
10:00 PM41 °FMostly cloudy.20 mph76%29.90 "Hg15 mi
9:00 PM43 °FMostly cloudy.22 mph71%29.91 "Hg15 mi
8:00 PM45 °FBroken clouds.25 mph66%29.91 "Hg15 mi
7:00 PM43 °FScattered clouds.26 mph71%29.92 "Hg15 mi
6:00 PM43 °FScattered clouds.25 mph81%29.92 "Hg15 mi
5:00 PM43 °FMostly cloudy.24 mph81%29.92 "Hg15 mi
4:00 PM41 °FMostly cloudy.28 mph87%29.93 "Hg15 mi
3:49 PM41 °FOvercast.23 mph87%29.93 "Hg15 mi
3:00 PM41 °FLight rain. Overcast.24 mph87%29.93 "Hg15 mi
2:00 PM43 °FMostly cloudy.31 mph76%29.92 "Hg15 mi
1:00 PM45 °FOvercast.16 mph71%29.95 "Hg15 mi
12:00 PM43 °FOvercast.15 mph76%29.95 "Hg15 mi
11:00 AM41 °FMostly cloudy.14 mph81%29.96 "Hg15 mi
10:00 AM45 °FBroken clouds.3 mph71%29.96 "Hg15 mi
9:00 AM46 °FBroken clouds.5 mph66%29.97 "Hg15 mi
8:00 AM45 °FMostly cloudy.6 mph71%29.98 "Hg15 mi
Weather by CustomWeather, © 2015

See weather overviewHow to use our weather pages